This is the latest recevied weather packets stored in our database for station/object N4JTC. If no packets are shown the sender has not sent any weather packets the latest 10 day(s).
| Time | Temp. | Humidity | Pressure | Rain* | Wind** | Luminosity | Snow |
|---|---|---|---|---|---|---|---|
| 1777647603 | 23.89° C | 75% | 1013.7 hPa | 0 mm | - | 278 W/m² | - |
| 1777646403 | 23.89° C | 75% | 1014.2 hPa | 0 mm | - | 391 W/m² | - |
| 1777646103 | 22.78° C | 78% | 1014.2 hPa | 0 mm | - | 352 W/m² | - |
| 1777645802 | 22.78° C | 77% | 1014.2 hPa | 0 mm | - | 444 W/m² | - |
| 1777645504 | 22.22° C | 78% | 1014.3 hPa | 0 mm | - | 236 W/m² | - |
| 1777645202 | 21.67° C | 79% | 1014.5 hPa | 0 mm | - | 219 W/m² | - |
| 1777644903 | 21.67° C | 79% | 1014.3 hPa | 0 mm | - | 97 W/m² | - |
| 1777644603 | 21.67° C | 79% | 1014.2 hPa | 0 mm | - | 95 W/m² | - |
| 1777644303 | 21.67° C | 80% | 1013.6 hPa | 0 mm | - | 129 W/m² | - |
| 1777642503 | 21.11° C | 81% | 1013.5 hPa | 0 mm | - | 100 W/m² | - |
| 1777642203 | 21.67° C | 80% | 1014 hPa | 0 mm | - | 66 W/m² | - |
| 1777641903 | 21.67° C | 81% | 1013.6 hPa | 0 mm | - | 93 W/m² | - |
| 1777641303 | 21.67° C | 81% | 1013.6 hPa | 0 mm | - | 76 W/m² | - |
| 1777641003 | 21.11° C | 82% | 1013.6 hPa | 0 mm | - | 109 W/m² | - |
| 1777638003 | 21.11° C | 83% | 1013.5 hPa | 0 mm | - | 45 W/m² | - |
| 1777637102 | 21.11° C | 84% | 1013.1 hPa | 0 mm | - | 69 W/m² | - |
| 1777636203 | 20.56° C | 84% | 1013.2 hPa | 0 mm | - | 29 W/m² | - |
| 1777635603 | 20.56° C | 85% | 1012.9 hPa | 0 mm | - | 25 W/m² | - |
| 1777635303 | 20.56° C | 85% | 1012.8 hPa | 0 mm | - | 20 W/m² | - |
| 1777635003 | 20.56° C | 86% | 1012.4 hPa | 0 mm | - | 16 W/m² | - |
| 1777634703 | 20° C | 86% | 1012.4 hPa | 0 mm | - | 15 W/m² | - |
| 1777634403 | 20° C | 86% | 1012.4 hPa | 0 mm | - | 11 W/m² | - |
| 1777634103 | 20° C | 86% | 1012.4 hPa | 0 mm | - | 7 W/m² | - |
| 1777633802 | 20° C | 87% | 1012.3 hPa | 0 mm | - | 4 W/m² | - |
| 1777633503 | 20° C | 86% | 1012.6 hPa | 0 mm | - | 3 W/m² | - |
* Rain latest hour (hover to see other rain measurements)
** Current wind speed in m/s (hover to see current wind gust speed)